Tracking 34142 objects as of 18-May-2026
HD Live streaming from Space Station
objects crossing your sky now

CENTISPACE-2 S2

Track CENTISPACE-2 S2 now!
10-day predictions


NORAD ID: 68351
Int'l Code: 2026-060B
Perigee: 649.0 km
Apogee: 666.5 km
Inclination: 55.0 °
Period: 97.7 minutes
Semi major axis: 7028 km
RCS: Unknown
Launch date: March 22, 2026
Source: People's Republic of China (PRC)
Launch site: Yellow Sea Launch Area, China (YSLA)
Your satellite tracking list
Your tracking list is empty




NASA's NSSDC Master Catalog

Two Line Element Set (TLE):
1 68351U 26060B   26137.85924925  .00000161  00000-0  56330-4 0  9999
2 68351  54.9796 159.8076 0012484  42.0454 318.1500 14.73276781  8292
Source of the keplerian elements: AFSPC